Погода в Денпасаре

Индонезия     8°40′56″S   115°13′09″E
темп.,
°C
ветер,
м/с
пор.,
м/с
влажн.,
%
обл.,
%
осадки,
мм/ч
давл.,
гПа
погр.,
м
22 января, сб
сб2223:00+27зсз5677100 0.2 1010621
02:00+27зсз5677100 0.3 1008689
05:00+27зсз5776100 0.1 1008842
08:00+28зсз6774100 0.1 1009992
11:00+28з6774100 0.0 1009948
14:00+28з787494 0.1 1007973
17:00+28зюз7874100 0.1 1006968
20:00+28з6772100 1.4 1008930
23 января, вс
вс2323:00+28з677473 0.1 10091027
02:00+28з7874100 0.1 10071019
05:00+28з7974100 0.0 10071123
08:00+28з7974100 0.1 10091210
11:00+28з81073100 0.1 10081185
14:00+28з91172100 0.1 10051043
17:00+28з81072100 0.0 10051041
20:00+28з8972100 0.0 10071236
24 января, пн
пн2423:00+28з7870100 0.0 10081256
02:00+28зсз7970100 0.0 10061092
05:00+27зсз7970100 0.0 1006976
08:00+27зсз7972100 0.0 1007936
11:00+28зсз81073100 0.0 1007994
14:00+28з71170100 0.0 10041140
17:00+28зюз101376100 0.1 1004901
20:00+27зюз897922 2.8 1006753
25 января, вт
вт2523:00+27зсз67828 4.6 1006473
02:00+27зсз587990 5.6 1004522
05:00+27зсз5776100 0.3 1004551
08:00+27сз347399 0.4 1006393
11:00+28з1268100 0.0 1006300
14:00+28юз456994 0.0 1004517
17:00+28з797297 0.1 1004666
20:00+28з698020 1.5 1006744
26 января, ср
ср2623:00+28зсз79765 0.5 1006820
02:00+28з8107774 1.1 1005764
05:00+27зсз6107852 0.5 1005796
08:00+28зсз69769 0.5 1007848
11:00+28з687698 0.0 1006925
14:00+29зюз797599 0.0 1004950
17:00+29зюз7975100 0.1 1004727
20:00+28з7977100 0.3 1006733